Weather History for KJKL - March, 2014

Change the Weather History Date:

Sunday, March 23, 2014

  Actual Average Record
Temperature  
Mean Temperature 38 °F 50 °F  
Max Temperature 47 °F 60 °F 80 °F (2007)
Min Temperature 28 °F 39 °F 22 °F (1983)
Degree Days  
Heating Degree Days 27 16  
Month to date heating degree days 488 440  
Since 1 July heating degree days 4089 3740  
Cooling Degree Days 0 0  
Month to date cooling degree days 0 0  
Year to date cooling degree days 0 0  
Moisture  
Dew Point 24 °F    
Average Humidity 57    
Maximum Humidity 75    
Minimum Humidity 38    
Precipitation  
Precipitation 0.00 in 0.13 in 1.03 in (1993)
Month to date precipitation 3.64 3.06  
Year to date precipitation 11.26 10.42  
Snow  
Snow 0.00 in 0.10 in T in (2008)
Month to date snowfall 8.0 2.4  
Since 1 July snowfall 35.0 22.0  
Snow Depth 0.00 in    
Sea Level Pressure  
Sea Level Pressure 30.18 in    
Wind  
Wind Speed 6 mph (NNE)    
Max Wind Speed 14 mph    
Max Gust Speed 21 mph    
Visibility 9 miles    
Events      
T = Trace of Precipitation, MM = Missing Value Source: NWS Daily Summary

Daily Weather History Graph

Daily Weather History Graph

Search for Another Location

Airport or City:

Trip Planner

Search our weather history database for the weather conditions in past years. The results will help you decide how hot, cold, wet, or windy it might be!

Date:

Astronomy

Mar. 23, 2014 Rise Set
Actual Time 7:32 AM EDT 7:47 PM EDT
Civil Twilight 7:06 AM EDT 8:14 PM EDT
Nautical Twilight 6:35 AM EDT 8:44 PM EDT
Astronomical Twilight 6:04 AM EDT 9:15 PM EDT
Moon 1:58 AM EDT (3/23) 12:17 PM EDT (3/23)
Length of Visible Light 13h 07m
Length of Day
12h 15m
Waning Gibbous, 55% of the Moon is Illuminated
Mar 23
Waning Gibbous
Mar 23
Last Quarter
Mar 30
New
Apr 7
First Quarter
Apr 15
Full

Hourly Weather History & Observations

Time (EDT) Temp. Windchill Dew Point Humidity Pressure Visibility Wind Dir Wind Speed Gust Speed Precip Events Conditions
12:53 AM 43.0 °F 41.3 °F 30.0 °F 60% 30.12 in 10.0 mi Variable 3.5 mph - N/A   Clear
1:53 AM 41.0 °F 38.0 °F 30.0 °F 65% 30.12 in 10.0 mi NE 4.6 mph - N/A   Clear
2:53 AM 39.0 °F 34.8 °F 28.9 °F 67% 30.11 in 10.0 mi NNE 5.8 mph - N/A   Clear
3:53 AM 37.9 °F 33.5 °F 28.0 °F 68% 30.13 in 10.0 mi NNE 5.8 mph - N/A   Clear
4:53 AM 37.0 °F 33.3 °F 28.0 °F 70% 30.12 in 10.0 mi NE 4.6 mph - N/A   Clear
5:53 AM 36.0 °F 32.1 °F 28.0 °F 73% 30.13 in 10.0 mi NNE 4.6 mph - N/A   Clear
6:53 AM 36.0 °F 33.3 °F 28.0 °F 73% 30.14 in 9.0 mi NE 3.5 mph - N/A   Scattered Clouds
7:53 AM 36.0 °F 31.1 °F 27.0 °F 70% 30.15 in 9.0 mi NE 5.8 mph - N/A   Overcast
8:19 AM 36.0 °F 30.3 °F 27.0 °F 70% 30.15 in 8.0 mi NNE 6.9 mph - N/A   Overcast
8:53 AM 37.0 °F 32.4 °F 27.0 °F 67% 30.17 in 9.0 mi NNE 5.8 mph - N/A   Overcast
9:23 AM 37.0 °F 32.4 °F 26.1 °F 65% 30.17 in 10.0 mi Variable 5.8 mph - N/A   Overcast
9:53 AM 39.0 °F 34.8 °F 27.0 °F 62% 30.18 in 10.0 mi NNE 5.8 mph - N/A   Mostly Cloudy
10:53 AM 41.0 °F 38.0 °F 26.1 °F 55% 30.19 in 2.0 mi Variable 4.6 mph - N/A   Haze
11:02 AM 43.0 °F 40.3 °F 27.0 °F 53% 30.18 in 7.0 mi Variable 4.6 mph - N/A   Clear
11:39 AM 43.0 °F 39.5 °F 25.0 °F 49% 30.17 in 1.0 mi Variable 5.8 mph - N/A   Haze
11:42 AM 41.0 °F 37.1 °F 24.1 °F 51% 30.17 in 5.0 mi Variable 5.8 mph - N/A   Haze
11:53 AM 42.1 °F 39.2 °F 25.0 °F 51% 30.19 in 10.0 mi Variable 4.6 mph - N/A   Mostly Cloudy
12:53 PM 46.9 °F - 25.0 °F 42% 30.19 in 10.0 mi Variable 4.6 mph - N/A   Mostly Cloudy
1:53 PM 46.0 °F 43.9 °F 23.0 °F 40% 30.17 in 10.0 mi Variable 4.6 mph - N/A   Scattered Clouds
2:53 PM 44.1 °F 38.6 °F 23.0 °F 43% 30.17 in 10.0 mi North 10.4 mph - N/A   Mostly Cloudy
3:53 PM 44.1 °F 38.1 °F 23.0 °F 43% 30.16 in 10.0 mi NW 11.5 mph 17.3 mph N/A   Mostly Cloudy
4:53 PM 46.0 °F 43.1 °F 23.0 °F 40% 30.17 in 10.0 mi Variable 5.8 mph - N/A   Mostly Cloudy
5:53 PM 42.1 °F 39.2 °F 21.9 °F 45% 30.20 in 10.0 mi Variable 4.6 mph - N/A   Overcast
6:53 PM 39.0 °F 34.8 °F 19.0 °F 45% 30.22 in 10.0 mi Variable 5.8 mph - N/A   Mostly Cloudy
7:53 PM 37.0 °F 33.3 °F 19.0 °F 48% 30.23 in 10.0 mi Variable 4.6 mph - N/A   Clear
8:53 PM 36.0 °F 32.1 °F 16.0 °F 44% 30.25 in 10.0 mi NNE 4.6 mph - N/A   Partly Cloudy
9:53 PM 34.0 °F 28.8 °F 14.0 °F 44% 30.27 in 10.0 mi NNE 5.8 mph - N/A   Clear
10:53 PM 30.9 °F 25.2 °F 12.9 °F 47% 30.29 in 10.0 mi Variable 5.8 mph - N/A   Clear
11:53 PM 28.9 °F 23.9 °F 12.0 °F 49% 30.29 in 10.0 mi Variable 4.6 mph - N/A   Clear